View from above orbital plane
|
View from above satellite
|
Ground track
|
The orbit data is extracted from the following two-line orbital elements,
1 23753U 95072C 21106.65458845 -.00000044 00000-0 92554-6 0 9998
2 23753 98.9556 133.9879 0004052 154.5317 205.6063 14.26598388316973
Epoch (UTC): | 16 April 2021 15:42:36 |
Eccentricity: | 0.0004052 |
inclination: | 98.9556° |
perigee height: | 800 km |
apogee height: | 806 km |
right ascension of ascending node: | 133.9879° |
argument of perigee: | 154.5317° |
revolutions per day: | 14.26598388 |
mean anomaly at epoch: | 205.6063° |
orbit number at epoch: | 31697 |
The dashed part of the orbit path shows where the satellite is in the earth's shadow,
|
|